User: anonymous   Login
Location: Bridgewater
(44.3670°N, 64.5170°W)
Time: 19:34:18
(UTC-03:00)
Language:

OPAL - Orbit

View from above orbital plane
View from above orbital plane
View from above satellite
View from above satellite

Ground track
Ground track

The orbit data is extracted from the following two-line orbital elements,

1 26063U 00004C   16267.89981434 +.00000024 +00000-0 +28004-4 0  9993
2 26063 100.1958 216.2884 0036351 340.3374 019.6403 14.36633001872946
Epoch (UTC): 23 September 2016 21:35:43
Eccentricity: 0.0036351
inclination: 100.1958°
perigee height: 743 km
apogee height: 795 km
right ascension of ascending node: 216.2884°
argument of perigee: 340.3374°
revolutions per day: 14.36633001
mean anomaly at epoch: 19.6403°
orbit number at epoch: 87294

The dashed part of the orbit path shows where the satellite is in the earth's shadow,  

DLR